contact:dominique.lefevre@mio.osupytheas.fr, maurice.libes@osupytheas.fr, didier.mallarino@osupytheas.fr
Project:EMSO http://www.emso-fr.org/EMSO-France
Depth: 2436.0 m
Title:EMSO Ligure Ouest : Data MII capteur AQUADOPP
Date,Latitude,Longitude,X_East,Y_North,Z_Up,Amplitude_X,Amplitude_Y,Amplitude_Z,Batterie,SoundSpeed,Heading,Pitch,Roll,Pressure,TIS,Speed,Direction
, degrees North, degrees East, m.s-1, m.s-1,m.s-1, 1, 1, 1, Volt, m.s-1, degree, degree, degree, dbar, degree_C, m.s-1, degree
2020-03-18T00:04:03,42.805,6.029,-0.031,0.024,-0.026,102.0,105.0,99.0,13.4,1505.3,323.4,-0.8,1.8,2470.432,13.31,0.039,307.7
2020-03-18T00:07:03,42.805,6.029,-0.015,0.017,-0.027,103.0,105.0,100.0,13.4,1505.3,327.7,-0.7,1.8,2470.379,13.32,0.022,318.6
2020-03-18T00:10:03,42.805,6.029,0.0,0.005,-0.013,102.0,107.0,100.0,13.3,1505.3,325.8,-0.7,1.8,2470.397,13.32,0.005,0.0
2020-03-18T00:13:03,42.805,6.029,-0.006,0.011,-0.032,102.0,107.0,100.0,13.4,1505.3,324.7,-0.7,1.8,2470.382,13.33,0.012,331.4
2020-03-18T00:16:03,42.805,6.029,0.021,0.009,-0.001,101.0,106.0,98.0,13.4,1505.3,325.7,-0.7,1.8,2470.403,13.33,0.022,66.8
2020-03-18T00:19:03,42.805,6.029,0.018,0.03,0.012,102.0,107.0,98.0,13.4,1505.3,323.4,-0.7,1.8,2470.39,13.33,0.034,31.0
2020-03-18T00:22:03,42.805,6.029,0.01,0.009,-0.019,101.0,107.0,100.0,13.4,1505.3,326.8,-0.7,1.8,2470.405,13.33,0.013,48.0
2020-03-18T00:25:03,42.805,6.029,0.031,0.018,-0.006,103.0,107.0,100.0,13.4,1505.3,325.1,-0.7,1.8,2470.39,13.33,0.035,59.9
2020-03-18T00:28:03,42.805,6.029,0.005,0.02,-0.06,102.0,105.0,101.0,13.4,1505.3,327.2,-0.7,1.8,2470.416,13.33,0.02,14.0
2020-03-18T00:31:03,42.805,6.029,-0.035,0.015,-0.042,102.0,107.0,101.0,13.4,1505.3,325.3,-0.7,1.8,2470.347,13.33,0.038,293.2
2020-03-18T00:34:03,42.805,6.029,-0.042,0.024,-0.046,101.0,105.0,101.0,13.4,1505.3,325.1,-0.7,1.8,2470.347,13.33,0.048,299.7
2020-03-18T00:37:03,42.805,6.029,0.01,0.01,0.001,103.0,104.0,99.0,13.3,1505.3,326.6,-0.7,1.8,2470.404,13.33,0.014,45.0
2020-03-18T00:40:03,42.805,6.029,0.017,0.013,-0.002,102.0,104.0,100.0,13.4,1505.3,324.9,-0.7,1.8,2470.366,13.33,0.021,52.6
2020-03-18T00:43:03,42.805,6.029,0.005,0.037,-0.006,102.0,103.0,100.0,13.4,1505.3,322.8,-0.7,1.8,2470.402,13.33,0.037,7.7
2020-03-18T00:46:03,42.805,6.029,0.044,0.015,0.0,102.0,106.0,100.0,13.4,1505.3,325.7,-0.7,1.8,2470.387,13.33,0.046,71.2
2020-03-18T00:49:03,42.805,6.029,-0.03,0.019,-0.028,102.0,105.0,100.0,13.4,1505.3,325.7,-0.7,1.8,2470.407,13.33,0.035,302.3
2020-03-18T00:52:03,42.805,6.029,-0.046,0.022,-0.061,102.0,106.0,99.0,13.4,1505.3,327.1,-0.7,1.8,2470.409,13.33,0.05,295.6
2020-03-18T00:55:03,42.805,6.029,-0.017,0.032,-0.047,103.0,108.0,99.0,13.3,1505.3,325.3,-0.7,1.8,2470.39,13.33,0.036,332.0
2020-03-18T00:58:03,42.805,6.029,-0.035,0.0,-0.042,102.0,105.0,100.0,13.4,1505.3,323.6,-0.7,1.8,2470.426,13.33,0.035,270.0
2020-03-18T01:04:03,42.805,6.029,-0.004,0.025,-0.048,104.0,107.0,101.0,13.3,1505.3,325.9,-0.8,1.9,2470.45,13.31,0.025,350.9
2020-03-18T01:07:03,42.805,6.029,0.003,0.005,-0.018,102.0,105.0,101.0,13.4,1505.3,327.2,-0.8,1.8,2470.363,13.32,0.005,31.0
2020-03-18T01:10:03,42.805,6.029,-0.035,0.001,-0.064,104.0,106.0,100.0,13.3,1505.3,325.8,-0.7,1.8,2470.409,13.32,0.035,271.6
2020-03-18T01:13:03,42.805,6.029,-0.033,0.013,-0.03,103.0,106.0,102.0,13.3,1505.3,327.0,-0.7,1.8,2470.403,13.33,0.035,291.5
2020-03-18T01:16:03,42.805,6.029,-0.02,0.022,-0.055,104.0,106.0,99.0,13.4,1505.3,327.3,-0.7,1.8,2470.399,13.33,0.029,317.7
2020-03-18T01:19:03,42.805,6.029,0.004,-0.007,-0.029,103.0,106.0,101.0,13.4,1505.3,325.7,-0.7,1.9,2470.38,13.33,0.008,150.3
2020-03-18T01:22:03,42.805,6.029,0.03,0.008,-0.008,101.0,106.0,100.0,13.4,1505.3,326.5,-0.7,1.8,2470.404,13.33,0.031,75.1
2020-03-18T01:25:03,42.805,6.029,0.003,0.005,-0.001,103.0,105.0,100.0,13.4,1505.3,324.4,-0.7,1.9,2470.366,13.33,0.005,31.0
2020-03-18T01:28:03,42.805,6.029,-0.006,0.01,-0.032,101.0,104.0,100.0,13.4,1505.3,326.1,-0.7,1.8,2470.407,13.33,0.011,329.0
2020-03-18T01:31:03,42.805,6.029,-0.003,0.014,-0.028,102.0,103.0,101.0,13.4,1505.3,327.1,-0.7,1.8,2470.407,13.33,0.014,347.9
2020-03-18T01:34:03,42.805,6.029,-0.015,0.006,-0.056,102.0,105.0,100.0,13.4,1505.3,325.1,-0.7,1.8,2470.397,13.33,0.016,291.8
2020-03-18T01:37:03,42.805,6.029,-0.009,0.006,-0.029,104.0,103.0,99.0,13.4,1505.3,326.8,-0.7,1.8,2470.409,13.33,0.01,303.7
2020-03-18T01:40:03,42.805,6.029,-0.001,0.0,-0.052,103.0,104.0,100.0,13.3,1505.3,325.1,-0.7,1.8,2470.421,13.33,0.001,270.0
2020-03-18T01:43:03,42.805,6.029,-0.054,0.007,-0.067,103.0,105.0,100.0,13.3,1505.3,325.5,-0.7,1.8,2470.386,13.33,0.054,277.4
2020-03-18T01:46:03,42.805,6.029,-0.016,0.004,-0.033,103.0,106.0,100.0,13.3,1505.3,327.8,-0.7,1.8,2470.462,13.33,0.016,284.0
2020-03-18T01:49:03,42.805,6.029,-0.044,0.005,-0.064,104.0,106.0,100.0,13.3,1505.3,323.7,-0.7,1.8,2470.414,13.33,0.044,276.5
2020-03-18T01:52:03,42.805,6.029,0.005,0.029,-0.011,104.0,104.0,98.0,13.4,1505.3,325.3,-0.7,1.8,2470.396,13.33,0.029,9.8
2020-03-18T01:55:03,42.805,6.029,0.051,0.006,-0.017,103.0,106.0,100.0,13.4,1505.3,326.3,-0.7,1.8,2470.416,13.33,0.051,83.3
2020-03-18T01:58:03,42.805,6.029,-0.02,0.004,-0.064,101.0,106.0,98.0,13.4,1505.3,324.2,-0.7,1.8,2470.428,13.33,0.02,281.3
2020-03-18T02:04:03,42.805,6.029,0.006,0.021,-0.025,102.0,105.0,100.0,13.4,1505.3,326.9,-0.7,1.8,2470.441,13.31,0.021,15.9
2020-03-18T02:07:03,42.805,6.029,-0.003,-0.009,-0.061,102.0,106.0,100.0,13.4,1505.3,327.2,-0.7,1.8,2470.463,13.32,0.009,198.4
2020-03-18T02:10:03,42.805,6.029,-0.005,-0.003,-0.07,103.0,107.0,99.0,13.4,1505.3,325.1,-0.7,1.8,2470.465,13.32,0.005,239.0
2020-03-18T02:13:03,42.805,6.029,-0.002,0.014,-0.029,102.0,106.0,100.0,13.3,1505.3,325.1,-0.7,1.8,2470.395,13.33,0.014,351.9
2020-03-18T02:16:03,42.805,6.029,0.019,0.008,-0.05,102.0,105.0,100.0,13.3,1505.3,324.1,-0.7,1.8,2470.449,13.33,0.02,67.2
2020-03-18T02:19:03,42.805,6.029,-0.04,0.008,-0.054,101.0,105.0,101.0,13.4,1505.3,325.1,-0.7,1.9,2470.41,13.33,0.04,281.3
2020-03-18T02:22:03,42.805,6.029,0.031,-0.011,-0.039,103.0,106.0,99.0,13.4,1505.3,326.4,-0.7,1.8,2470.419,13.33,0.032,109.5
2020-03-18T02:25:03,42.805,6.029,0.019,0.016,0.006,102.0,104.0,100.0,13.3,1505.3,323.5,-0.6,1.8,2470.388,13.33,0.024,49.9
2020-03-18T02:28:03,42.805,6.029,0.019,0.014,-0.034,103.0,104.0,100.0,13.4,1505.3,325.2,-0.7,1.8,2470.39,13.33,0.023,53.6
2020-03-18T02:31:03,42.805,6.029,-0.007,0.014,-0.04,103.0,103.0,100.0,13.4,1505.3,326.6,-0.7,1.8,2470.406,13.33,0.015,333.4
2020-03-18T02:34:03,42.805,6.029,-0.006,0.007,-0.041,103.0,102.0,99.0,13.3,1505.3,325.6,-0.7,1.8,2470.36,13.33,0.009,319.4
2020-03-18T02:37:03,42.805,6.029,-0.01,0.0,-0.033,102.0,104.0,100.0,13.4,1505.3,326.7,-0.7,1.8,2470.433,13.33,0.01,270.0
2020-03-18T02:40:03,42.805,6.029,-0.037,0.011,-0.062,103.0,104.0,100.0,13.3,1505.3,324.2,-0.7,1.8,2470.42,13.33,0.038,286.6
2020-03-18T02:43:03,42.805,6.029,-0.036,0.002,-0.075,102.0,105.0,100.0,13.4,1505.3,326.7,-0.7,1.8,2470.411,13.33,0.036,273.2
2020-03-18T02:46:03,42.805,6.029,-0.018,-0.008,-0.021,102.0,104.0,100.0,13.3,1505.3,323.2,-0.7,1.8,2470.384,13.33,0.019,246.0
2020-03-18T02:49:03,42.805,6.029,-0.007,0.019,-0.04,103.0,104.0,100.0,13.4,1505.3,327.5,-0.7,1.8,2470.413,13.33,0.02,339.8
2020-03-18T02:52:03,42.805,6.029,-0.019,0.011,-0.035,101.0,104.0,100.0,13.4,1505.3,327.9,-0.7,1.8,2470.446,13.33,0.021,300.1
2020-03-18T02:55:03,42.805,6.029,-0.002,-0.005,-0.065,103.0,106.0,99.0,13.4,1505.3,326.5,-0.7,1.9,2470.423,13.33,0.005,201.8
2020-03-18T02:58:03,42.805,6.029,-0.016,-0.007,-0.075,102.0,105.0,101.0,13.4,1505.3,325.1,-0.7,1.8,2470.422,13.33,0.017,246.4
2020-03-18T03:04:03,42.805,6.029,-0.012,0.007,-0.043,102.0,106.0,100.0,13.4,1505.3,327.1,-0.7,1.8,2470.465,13.31,0.013,300.3
2020-03-18T03:07:03,42.805,6.029,-0.026,0.002,-0.028,103.0,106.0,100.0,13.4,1505.3,325.3,-0.7,1.8,2470.419,13.32,0.026,274.4
2020-03-18T03:10:03,42.805,6.029,-0.005,0.006,-0.015,102.0,105.0,102.0,13.3,1505.3,327.0,-0.8,1.8,2470.449,13.33,0.007,320.2
2020-03-18T03:13:03,42.805,6.029,-0.027,0.002,-0.035,103.0,105.0,100.0,13.4,1505.3,324.0,-0.7,1.9,2470.431,13.33,0.027,274.2
2020-03-18T03:16:03,42.805,6.029,0.006,0.011,-0.016,102.0,106.0,100.0,13.4,1505.3,328.3,-0.7,1.8,2470.417,13.33,0.012,28.6
2020-03-18T03:19:03,42.805,6.029,0.01,0.009,-0.016,103.0,106.0,100.0,13.4,1505.3,325.0,-0.7,1.8,2470.41,13.33,0.013,48.0
2020-03-18T03:22:03,42.805,6.029,-0.016,-0.005,-0.055,102.0,106.0,100.0,13.4,1505.3,326.8,-0.7,1.9,2470.409,13.33,0.016,252.6
2020-03-18T03:25:03,42.805,6.029,-0.026,-0.006,-0.06,101.0,105.0,101.0,13.4,1505.3,325.3,-0.7,1.8,2470.411,13.33,0.026,257.0
2020-03-18T03:28:03,42.805,6.029,-0.034,-0.006,-0.052,104.0,106.0,100.0,13.4,1505.3,324.9,-0.7,1.8,2470.424,13.33,0.034,260.0
2020-03-18T03:31:03,42.805,6.029,-0.007,-0.015,-0.021,103.0,103.0,101.0,13.4,1505.3,324.9,-0.7,1.9,2470.393,13.33,0.016,205.0
2020-03-18T03:34:03,42.805,6.029,-0.027,0.009,-0.051,101.0,103.0,100.0,13.4,1505.3,324.5,-0.7,1.8,2470.417,13.33,0.028,288.4
2020-03-18T03:37:03,42.805,6.029,0.004,-0.007,-0.041,102.0,104.0,99.0,13.4,1505.3,323.3,-0.7,1.8,2470.402,13.33,0.008,150.3
2020-03-18T03:40:03,42.805,6.029,0.0,0.001,-0.06,102.0,104.0,98.0,13.4,1505.3,325.3,-0.7,1.9,2470.418,13.33,0.001,0.0
2020-03-18T03:43:03,42.805,6.029,0.0,-0.002,-0.041,101.0,103.0,100.0,13.4,1505.3,326.5,-0.7,1.8,2470.382,13.33,0.002,180.0
2020-03-18T03:46:03,42.805,6.029,0.018,0.016,-0.041,103.0,105.0,100.0,13.3,1505.3,325.2,-0.7,1.8,2470.419,13.33,0.024,48.4
2020-03-18T03:49:03,42.805,6.029,-0.002,0.009,-0.045,103.0,103.0,101.0,13.4,1505.3,326.3,-0.7,1.8,2470.453,13.33,0.009,347.5
2020-03-18T03:52:03,42.805,6.029,-0.016,0.004,-0.028,103.0,105.0,100.0,13.4,1505.3,323.0,-0.7,1.8,2470.454,13.33,0.016,284.0
2020-03-18T03:55:03,42.805,6.029,-0.004,0.005,-0.027,102.0,105.0,108.0,13.3,1505.3,324.9,-0.7,1.8,2470.407,13.33,0.006,321.3
2020-03-18T03:58:03,42.805,6.029,-0.007,0.011,-0.041,101.0,104.0,99.0,13.3,1505.3,326.2,-0.7,1.8,2470.435,13.33,0.013,327.5
2020-03-18T04:04:03,42.805,6.029,0.004,0.024,-0.039,103.0,105.0,101.0,13.4,1505.3,326.5,-0.7,1.8,2470.445,13.31,0.024,9.5
2020-03-18T04:07:03,42.805,6.029,0.024,0.011,0.013,101.0,105.0,101.0,13.4,1505.3,327.7,-0.7,1.9,2470.427,13.32,0.026,65.4
2020-03-18T04:10:03,42.805,6.029,-0.021,0.011,-0.002,103.0,106.0,101.0,13.4,1505.3,323.1,-0.7,1.9,2470.408,13.32,0.023,297.6
2020-03-18T04:13:03,42.805,6.029,-0.021,0.021,-0.042,104.0,107.0,100.0,13.4,1505.3,326.0,-0.7,1.8,2470.447,13.33,0.029,315.0
2020-03-18T04:16:03,42.805,6.029,-0.015,0.0,-0.028,105.0,105.0,100.0,13.4,1505.3,326.1,-0.7,1.8,2470.465,13.33,0.015,270.0
2020-03-18T04:19:03,42.805,6.029,-0.004,-0.008,-0.012,104.0,106.0,101.0,13.3,1505.3,328.1,-0.7,1.8,2470.425,13.33,0.008,206.6
2020-03-18T04:22:03,42.805,6.029,-0.012,0.006,-0.021,104.0,104.0,101.0,13.4,1505.3,327.9,-0.7,1.8,2470.438,13.33,0.013,296.6
2020-03-18T04:25:03,42.805,6.029,-0.005,-0.009,-0.06,103.0,105.0,101.0,13.4,1505.3,327.1,-0.7,1.8,2470.426,13.33,0.01,209.1
2020-03-18T04:28:03,42.805,6.029,-0.038,-0.003,-0.067,102.0,106.0,100.0,13.4,1505.3,324.0,-0.7,1.8,2470.442,13.33,0.038,265.5
2020-03-18T04:31:03,42.805,6.029,-0.023,0.012,-0.047,102.0,104.0,100.0,13.4,1505.3,328.5,-0.7,1.9,2470.428,13.33,0.025,297.6
2020-03-18T04:34:03,42.805,6.029,-0.02,0.003,-0.06,101.0,105.0,99.0,13.3,1505.3,324.8,-0.7,1.8,2470.431,13.33,0.02,278.5
2020-03-18T04:37:03,42.805,6.029,-0.006,0.018,-0.035,101.0,103.0,99.0,13.4,1505.3,326.9,-0.7,1.8,2470.397,13.33,0.018,341.6
2020-03-18T04:40:03,42.805,6.029,0.007,0.017,-0.01,100.0,104.0,100.0,13.4,1505.3,322.7,-0.7,1.8,2470.424,13.33,0.018,22.4
2020-03-18T04:43:03,42.805,6.029,0.016,-0.011,-0.01,102.0,106.0,99.0,13.4,1505.3,325.1,-0.7,1.8,2470.451,13.33,0.019,124.5
2020-03-18T04:46:03,42.805,6.029,-0.003,0.0,-0.052,103.0,105.0,99.0,13.4,1505.3,326.8,-0.7,1.8,2470.416,13.33,0.003,270.0
2020-03-18T04:49:03,42.805,6.029,-0.015,0.0,-0.027,102.0,106.0,99.0,13.4,1505.3,326.6,-0.7,1.8,2470.45,13.33,0.015,270.0
2020-03-18T04:52:03,42.805,6.029,-0.035,0.006,-0.057,102.0,104.0,100.0,13.4,1505.3,325.3,-0.7,1.8,2470.427,13.33,0.035,279.7
2020-03-18T04:55:03,42.805,6.029,-0.015,-0.01,-0.072,102.0,105.0,100.0,13.4,1505.3,327.8,-0.7,1.8,2470.407,13.33,0.018,236.3
2020-03-18T04:58:03,42.805,6.029,0.006,0.011,-0.048,103.0,105.0,99.0,13.3,1505.3,326.3,-0.7,1.8,2470.399,13.33,0.012,28.6
2020-03-18T05:04:03,42.805,6.029,0.027,-0.003,-0.045,102.0,105.0,100.0,13.3,1505.3,325.3,-0.8,1.8,2470.413,13.31,0.027,96.3
2020-03-18T05:07:03,42.805,6.029,0.025,0.009,-0.017,103.0,104.0,99.0,13.3,1505.3,328.1,-0.7,1.8,2470.452,13.32,0.026,70.2
2020-03-18T05:10:03,42.805,6.029,-0.001,-0.018,-0.054,104.0,103.0,100.0,13.4,1505.3,326.6,-0.7,1.8,2470.381,13.32,0.018,183.2
2020-03-18T05:13:03,42.805,6.029,-0.025,-0.005,-0.048,103.0,105.0,100.0,13.4,1505.3,324.8,-0.7,1.8,2470.446,13.32,0.025,258.7
2020-03-18T05:16:03,42.805,6.029,-0.006,-0.013,-0.042,102.0,107.0,101.0,13.3,1505.3,323.5,-0.7,1.8,2470.39,13.32,0.014,204.8
2020-03-18T05:19:03,42.805,6.029,-0.024,-0.016,-0.059,103.0,104.0,100.0,13.4,1505.3,323.1,-0.6,1.9,2470.432,13.33,0.028,236.3
2020-03-18T05:22:03,42.805,6.029,-0.04,0.002,-0.07,103.0,106.0,101.0,13.3,1505.3,327.3,-0.7,1.8,2470.432,13.33,0.04,272.9
2020-03-18T05:25:03,42.805,6.029,-0.016,-0.006,-0.015,103.0,104.0,101.0,13.4,1505.3,328.2,-0.7,1.9,2470.4,13.33,0.017,249.4
2020-03-18T05:28:03,42.805,6.029,-0.013,0.003,-0.039,105.0,105.0,100.0,13.3,1505.3,326.1,-0.7,1.8,2470.386,13.33,0.013,283.0
2020-03-18T05:31:03,42.805,6.029,-0.029,-0.006,-0.054,102.0,106.0,103.0,13.4,1505.3,324.6,-0.7,1.8,2470.415,13.33,0.029,258.3
2020-03-18T05:34:03,42.805,6.029,-0.05,-0.009,-0.041,104.0,106.0,101.0,13.3,1505.3,325.0,-0.7,1.8,2470.38,13.33,0.05,259.8
2020-03-18T05:37:03,42.805,6.029,-0.006,-0.011,-0.02,104.0,105.0,102.0,13.3,1505.3,327.2,-0.7,1.8,2470.422,13.33,0.012,208.6
2020-03-18T05:40:03,42.805,6.029,-0.009,-0.008,0.001,105.0,105.0,101.0,13.4,1505.3,324.2,-0.7,1.8,2470.368,13.33,0.012,228.4
2020-03-18T05:43:03,42.805,6.029,-0.024,0.005,-0.049,105.0,107.0,100.0,13.4,1505.3,324.5,-0.7,1.8,2470.373,13.33,0.024,281.8
2020-03-18T05:46:03,42.805,6.029,-0.025,-0.024,-0.051,103.0,107.0,102.0,13.3,1505.3,327.3,-0.7,1.8,2470.38,13.33,0.034,226.2
2020-03-18T05:49:03,42.805,6.029,0.01,-0.012,-0.058,104.0,105.0,103.0,13.3,1505.3,324.9,-0.7,1.8,2470.394,13.33,0.015,140.2
2020-03-18T05:52:03,42.805,6.029,-0.023,-0.021,-0.022,103.0,106.0,100.0,13.4,1505.3,325.9,-0.7,1.8,2470.42,13.33,0.031,227.6
2020-03-18T05:55:03,42.805,6.029,0.006,-0.008,-0.032,103.0,105.0,100.0,13.3,1505.3,325.1,-0.7,1.8,2470.405,13.33,0.01,143.1
2020-03-18T05:58:03,42.805,6.029,-0.035,-0.014,-0.072,104.0,102.0,100.0,13.3,1505.3,326.0,-0.7,1.8,2470.367,13.33,0.037,248.2
2020-03-18T06:04:03,42.805,6.029,-0.021,-0.014,-0.029,103.0,105.0,101.0,13.4,1505.3,326.7,-0.7,1.8,2470.436,13.31,0.025,236.3
2020-03-18T06:07:03,42.805,6.029,-0.045,-0.005,-0.039,105.0,104.0,100.0,13.4,1505.3,328.2,-0.7,1.9,2470.44,13.31,0.045,263.7
2020-03-18T06:10:03,42.805,6.029,-0.016,0.0,-0.03,103.0,106.0,100.0,13.4,1505.3,324.7,-0.7,1.8,2470.414,13.32,0.016,270.0
2020-03-18T06:13:03,42.805,6.029,-0.001,0.006,-0.038,103.0,105.0,100.0,13.4,1505.3,325.3,-0.7,1.9,2470.412,13.32,0.006,350.5
2020-03-18T06:16:03,42.805,6.029,-0.039,0.003,-0.025,104.0,103.0,102.0,13.4,1505.3,324.3,-0.7,1.9,2470.428,13.32,0.039,274.4
2020-03-18T06:19:03,42.805,6.029,-0.011,-0.004,-0.022,102.0,105.0,101.0,13.4,1505.3,327.1,-0.7,1.8,2470.39,13.32,0.011,250.0
2020-03-18T06:22:03,42.805,6.029,-0.034,0.025,-0.036,104.0,106.0,99.0,13.4,1505.3,327.9,-0.7,1.9,2470.394,13.32,0.042,306.3
2020-03-18T06:25:03,42.805,6.029,-0.02,0.003,-0.041,102.0,105.0,101.0,13.4,1505.3,327.0,-0.7,1.9,2470.401,13.33,0.02,278.5
2020-03-18T06:28:03,42.805,6.029,-0.013,-0.008,-0.027,105.0,104.0,99.0,13.3,1505.3,323.6,-0.7,1.8,2470.407,13.33,0.015,238.4
2020-03-18T06:31:03,42.805,6.029,-0.03,0.01,-0.017,102.0,105.0,100.0,13.4,1505.3,323.6,-0.7,1.8,2470.363,13.33,0.031,288.4
2020-03-18T06:34:03,42.805,6.029,-0.025,0.0,-0.03,103.0,104.0,100.0,13.4,1505.3,326.6,-0.7,1.9,2470.401,13.33,0.025,270.0
2020-03-18T06:37:03,42.805,6.029,-0.024,0.012,-0.032,103.0,104.0,101.0,13.4,1505.3,324.8,-0.7,1.8,2470.39,13.33,0.026,296.6
2020-03-18T06:40:03,42.805,6.029,-0.016,-0.003,-0.011,104.0,105.0,100.0,13.3,1505.3,326.3,-0.7,1.8,2470.376,13.33,0.016,259.4
2020-03-18T06:43:03,42.805,6.029,-0.033,-0.006,-0.034,102.0,105.0,102.0,13.4,1505.3,325.4,-0.7,1.8,2470.315,13.33,0.033,259.7
2020-03-18T06:46:03,42.805,6.029,-0.023,0.006,-0.056,103.0,105.0,100.0,13.3,1505.3,325.1,-0.7,1.8,2470.379,13.33,0.023,284.6
2020-03-18T06:49:03,42.805,6.029,-0.039,-0.006,-0.054,103.0,105.0,100.0,13.3,1505.3,325.3,-0.7,1.8,2470.348,13.33,0.039,261.3
2020-03-18T06:52:03,42.805,6.029,-0.003,-0.007,-0.062,103.0,104.0,100.0,13.4,1505.3,328.4,-0.7,1.8,2470.382,13.33,0.007,203.2
2020-03-18T06:55:03,42.805,6.029,-0.025,-0.021,-0.042,102.0,104.0,100.0,13.3,1505.3,326.7,-0.7,1.8,2470.37,13.33,0.032,230.0
2020-03-18T06:58:03,42.805,6.029,-0.016,0.0,-0.03,101.0,105.0,101.0,13.4,1505.3,323.2,-0.7,1.8,2470.373,13.33,0.016,270.0
2020-03-18T07:04:03,42.805,6.029,-0.038,0.001,-0.05,102.0,105.0,101.0,13.4,1505.3,324.2,-0.7,1.8,2470.391,13.31,0.038,271.5
2020-03-18T07:07:03,42.805,6.029,-0.063,0.006,-0.069,103.0,105.0,99.0,13.3,1505.3,328.5,-0.7,1.8,2470.416,13.31,0.063,275.4
2020-03-18T07:10:03,42.805,6.029,-0.038,-0.02,-0.064,103.0,104.0,100.0,13.4,1505.3,326.2,-0.7,1.8,2470.36,13.32,0.042,242.2
2020-03-18T07:13:03,42.805,6.029,-0.032,0.016,-0.069,103.0,107.0,99.0,13.4,1505.3,326.7,-0.7,1.8,2470.449,13.32,0.035,296.6
2020-03-18T07:16:03,42.805,6.029,-0.037,-0.019,-0.059,103.0,103.0,101.0,13.4,1505.3,326.3,-0.7,1.8,2470.368,13.32,0.041,242.8
2020-03-18T07:19:03,42.805,6.029,0.0,0.013,-0.046,102.0,104.0,100.0,13.4,1505.3,328.1,-0.7,1.8,2470.374,13.32,0.013,0.0
2020-03-18T07:22:03,42.805,6.029,0.0,-0.004,-0.031,104.0,104.0,102.0,13.3,1505.3,328.0,-0.7,1.8,2470.367,13.33,0.004,180.0
2020-03-18T07:25:03,42.805,6.029,-0.019,-0.005,-0.039,103.0,105.0,102.0,13.3,1505.3,324.6,-0.7,1.8,2470.386,13.33,0.019,255.3
2020-03-18T07:28:03,42.805,6.029,-0.027,0.003,-0.038,103.0,106.0,100.0,13.4,1505.3,326.3,-0.7,1.8,2470.399,13.33,0.027,276.3
2020-03-18T07:31:03,42.805,6.029,-0.015,0.014,-0.022,103.0,106.0,101.0,13.4,1505.3,324.7,-0.7,1.8,2470.384,13.33,0.02,313.0
2020-03-18T07:34:03,42.805,6.029,0.001,-0.001,-0.053,104.0,106.0,101.0,13.4,1505.3,327.2,-0.7,1.8,2470.381,13.33,0.001,135.0
2020-03-18T07:37:03,42.805,6.029,-0.037,-0.011,-0.026,104.0,106.0,102.0,13.3,1505.3,325.3,-0.7,1.8,2470.336,13.33,0.038,253.4
2020-03-18T07:40:03,42.805,6.029,-0.039,-0.011,-0.046,103.0,105.0,102.0,13.4,1505.3,328.1,-0.7,1.8,2470.384,13.33,0.04,254.3
2020-03-18T07:43:03,42.805,6.029,-0.027,-0.002,-0.063,103.0,106.0,101.0,13.4,1505.3,325.4,-0.7,1.8,2470.402,13.33,0.027,265.8
2020-03-18T07:46:03,42.805,6.029,-0.039,-0.001,-0.066,103.0,104.0,100.0,13.3,1505.3,326.6,-0.7,1.8,2470.339,13.33,0.039,268.5
2020-03-18T07:49:03,42.805,6.029,-0.031,0.011,-0.051,103.0,104.0,100.0,13.3,1505.3,326.8,-0.7,1.8,2470.362,13.33,0.032,289.5
2020-03-18T07:52:03,42.805,6.029,-0.062,-0.001,-0.062,103.0,105.0,101.0,13.4,1505.3,324.1,-0.7,1.8,2470.375,13.33,0.062,269.1
2020-03-18T07:55:03,42.805,6.029,-0.032,0.002,-0.056,104.0,106.0,100.0,13.4,1505.3,327.5,-0.7,1.8,2470.362,13.33,0.032,273.6
2020-03-18T07:58:03,42.805,6.029,-0.04,-0.007,-0.045,103.0,108.0,101.0,13.4,1505.3,326.5,-0.7,1.8,2470.38,13.33,0.04,260.1
2020-03-18T08:04:03,42.805,6.029,-0.059,-0.006,-0.08,104.0,106.0,100.0,13.4,1505.3,326.6,-0.7,1.8,2470.397,13.31,0.059,264.2
2020-03-18T08:07:03,42.805,6.029,-0.069,-0.019,-0.075,104.0,106.0,100.0,13.3,1505.3,325.0,-0.7,1.8,2470.371,13.31,0.071,254.6
2020-03-18T08:10:03,42.805,6.029,-0.035,0.007,-0.044,102.0,106.0,101.0,13.3,1505.3,327.8,-0.7,1.8,2470.405,13.32,0.035,281.3
2020-03-18T08:13:03,42.805,6.029,-0.018,-0.024,-0.05,103.0,105.0,101.0,13.4,1505.3,327.2,-0.7,1.8,2470.319,13.32,0.03,216.9
2020-03-18T08:16:03,42.805,6.029,-0.04,-0.01,-0.055,104.0,104.0,100.0,13.4,1505.3,326.3,-0.7,1.8,2470.38,13.32,0.041,256.0
2020-03-18T08:19:03,42.805,6.029,-0.013,-0.01,-0.054,102.0,105.0,101.0,13.4,1505.3,324.8,-0.7,1.8,2470.346,13.33,0.016,232.4
2020-03-18T08:22:03,42.805,6.029,-0.053,0.003,-0.069,103.0,107.0,100.0,13.4,1505.3,327.5,-0.7,1.9,2470.401,13.33,0.053,273.2
2020-03-18T08:25:03,42.805,6.029,-0.04,-0.012,-0.069,103.0,105.0,101.0,13.4,1505.3,324.0,-0.7,1.8,2470.363,13.33,0.041,253.3
2020-03-18T08:28:03,42.805,6.029,-0.041,-0.014,-0.057,104.0,105.0,101.0,13.3,1505.3,325.0,-0.7,1.9,2470.379,13.33,0.043,251.1
2020-03-18T08:31:03,42.805,6.029,-0.02,-0.002,-0.031,102.0,106.0,102.0,13.4,1505.3,326.4,-0.7,1.8,2470.336,13.33,0.02,264.3
2020-03-18T08:34:03,42.805,6.029,-0.055,0.003,-0.082,105.0,108.0,100.0,13.4,1505.3,324.8,-0.7,1.8,2470.307,13.33,0.055,273.1
2020-03-18T08:37:03,42.805,6.029,-0.029,-0.001,-0.057,103.0,105.0,101.0,13.4,1505.3,323.6,-0.7,1.8,2470.319,13.33,0.029,268.0
2020-03-18T08:40:03,42.805,6.029,-0.006,-0.005,-0.035,104.0,106.0,101.0,13.4,1505.3,325.1,-0.7,1.8,2470.358,13.33,0.007,230.2
2020-03-18T08:43:03,42.805,6.029,-0.031,-0.004,-0.03,103.0,105.0,100.0,13.4,1505.3,325.4,-0.7,1.8,2470.366,13.33,0.031,262.7
2020-03-18T08:49:03,42.805,6.029,-0.001,0.012,-0.022,103.0,105.0,100.0,13.3,1505.3,326.7,-0.8,1.8,2470.333,13.31,0.012,355.2
2020-03-18T08:52:03,42.805,6.029,-0.043,0.002,-0.039,103.0,105.0,100.0,13.4,1505.3,326.9,-0.7,1.8,2470.343,13.31,0.043,272.7
2020-03-18T08:55:03,42.805,6.029,-0.05,0.012,-0.076,105.0,106.0,100.0,13.4,1505.3,327.0,-0.7,1.8,2470.369,13.32,0.051,283.5
2020-03-18T08:58:03,42.805,6.029,-0.044,-0.009,-0.043,103.0,106.0,102.0,13.4,1505.3,326.0,-0.7,1.9,2470.361,13.32,0.044,258.4
2020-03-18T09:04:03,42.805,6.029,-0.019,-0.004,-0.023,105.0,106.0,100.0,13.4,1505.3,327.0,-0.7,1.8,2470.414,13.31,0.019,258.1
2020-03-18T09:07:03,42.805,6.029,-0.005,-0.01,-0.007,105.0,104.0,101.0,13.4,1505.3,328.5,-0.8,1.8,2470.334,13.31,0.011,206.6
2020-03-18T09:10:03,42.805,6.029,0.018,-0.021,-0.055,102.0,104.0,102.0,13.4,1505.3,328.1,-0.7,1.8,2470.309,13.32,0.027,139.4
2020-03-18T09:13:03,42.805,6.029,-0.021,0.011,-0.026,104.0,106.0,103.0,13.4,1505.3,326.0,-0.7,1.8,2470.392,13.32,0.023,297.6
2020-03-18T09:16:03,42.805,6.029,-0.029,-0.002,-0.033,104.0,105.0,101.0,13.4,1505.3,326.5,-0.7,1.8,2470.363,13.32,0.029,266.1
2020-03-18T09:19:03,42.805,6.029,-0.014,-0.019,-0.019,103.0,104.0,102.0,13.4,1505.3,325.7,-0.7,1.8,2470.326,13.33,0.023,216.4
2020-03-18T09:22:03,42.805,6.029,-0.009,-0.016,-0.085,104.0,105.0,101.0,13.4,1505.3,326.5,-0.7,1.8,2470.347,13.33,0.018,209.4
2020-03-18T09:25:03,42.805,6.029,0.005,-0.004,-0.034,104.0,105.0,101.0,13.4,1505.3,326.8,-0.7,1.8,2470.277,13.33,0.006,128.7
2020-03-18T09:28:03,42.805,6.029,-0.015,-0.008,-0.067,104.0,105.0,101.0,13.3,1505.3,325.9,-0.7,1.9,2470.356,13.33,0.017,241.9
2020-03-18T09:31:03,42.805,6.029,-0.021,0.012,-0.022,103.0,105.0,102.0,13.3,1505.3,323.3,-0.7,1.8,2470.321,13.33,0.024,299.7
2020-03-18T09:34:03,42.805,6.029,0.014,0.008,-0.017,102.0,103.0,100.0,13.4,1505.3,328.0,-0.7,1.8,2470.299,13.33,0.016,60.3
2020-03-18T09:37:03,42.805,6.029,-0.001,-0.009,-0.025,101.0,105.0,102.0,13.4,1505.3,328.0,-0.7,1.8,2470.309,13.33,0.009,186.3
2020-03-18T09:40:03,42.805,6.029,-0.023,0.0,-0.056,103.0,103.0,100.0,13.4,1505.3,328.6,-0.7,1.8,2470.319,13.33,0.023,270.0
2020-03-18T09:43:03,42.805,6.029,-0.005,-0.002,0.001,102.0,104.0,101.0,13.4,1505.3,327.7,-0.7,1.8,2470.253,13.33,0.005,248.2
2020-03-18T09:46:03,42.805,6.029,-0.032,-0.006,-0.077,104.0,105.0,98.0,13.4,1505.3,326.4,-0.7,1.8,2470.293,13.33,0.032,259.4
2020-03-18T09:49:03,42.805,6.029,-0.04,0.021,-0.046,103.0,105.0,100.0,13.4,1505.3,325.5,-0.7,1.8,2470.265,13.33,0.045,297.7
2020-03-18T09:52:03,42.805,6.029,-0.043,-0.004,-0.072,104.0,104.0,101.0,13.4,1505.3,326.4,-0.7,1.8,2470.281,13.33,0.043,264.7
2020-03-18T09:55:03,42.805,6.029,0.024,-0.013,0.001,102.0,106.0,100.0,13.4,1505.3,326.8,-0.7,1.8,2470.299,13.33,0.027,118.4
2020-03-18T09:58:03,42.805,6.029,-0.026,-0.023,-0.063,104.0,106.0,100.0,13.4,1505.3,327.7,-0.7,1.8,2470.298,13.33,0.034,228.5